Погода в Хирардоте

Колумбия     4°17′50″N   74°48′03″W
В апреле 2022 года жителям России запретили посещать сайт meteo.paraplan.net по решению Генеральной прокуратуры. Аудитория сайта уменьшилась в 10 раз. Владельцы сайта не видят смысла в поддержке погодного сервера в таких условиях. Сайт будет закрыт в октябре.
темп.,
°C
ветер,
м/с
пор.,
м/с
влажн.,
%
обл.,
%
осадки,
мм/ч
давл.,
гПа
погр.,
м
29 сентября, чт
чт2901:00+21св119025 1.7 101114
04:00+21ююв009266 0.1 101111
07:00+22ю008592 0.1 1013167
10:00+28зюз126395 0.0 10131022
13:00+32юз114794 0.0 10071483
16:00+32юз1243100 0.2 10041367
19:00+25в2273100 1.0 100748
22:00+23св1178100 0.9 100915
30 сентября, пт
пт3001:00+22ссв0187100 3.3 100912
04:00+21ю0093100 3.3 101038
07:00+22юв119098 4.3 1012122
10:00+27сз126959 0.2 1012923
13:00+31ююз335284 0.3 10071652
16:00+24ююв1285100 3.3 100866
19:00+22зсз1190100 4.3 101024
22:00+22юз018978 0.0 101114
1 октября, сб
сб101:00+22зюз008991 0.0 101111
04:00+21вюв1191100 0.1 101112
07:00+22юз118687 0.1 1013130
10:00+27юз336422 0.1 1014870
13:00+31юз344743 0.3 10101378
16:00+31юз34445 0.1 10071325
19:00+26в226029 0.1 100916
22:00+24св1167100 0.0 101214
2 октября, вс
вс201:00+20св2286100 1.3 101229
04:00+20всв1188100 0.4 101311
07:00+21в1183100 0.9 101598
10:00+27ююв116253 0.2 1015758
13:00+31ююз2348100 0.3 10121482
16:00+24ю3672100 0.6 1013155
19:00+23в1175100 0.6 101515
22:00+22вюв119042 2.8 101620
3 октября, пн
пн301:00+21св1187100 2.9 101312
04:00+20ююв118995 0.0 101311
07:00+22вюв008235 0.0 1015118
10:00+27юз22605 0.0 1015886
13:00+32юз224564 0.0 10091298
16:00+32юз124290 0.0 10071262
19:00+28всв225693 0.0 100931
22:00+22в1183100 2.4 101214